• In Moldova, Republic
  • List of Countries
  • For 7 days
  • Water Temperature
  • Satellite Maps
  • Weather Map
  • Weather Widgets
  • user-avatar
    Login

    Hourly Weather Benguela

    Today, 29 June, Thursday

    Time Temperature Precipitation Wind Pressure Humidity
    00:00 +24°C° 0 mm 1 mps 760 mmHg 86%
    01:00 +24°C° 0 mm 1 mps 760 mmHg 87%
    02:00 +24°C° 0 mm 1 mps 760 mmHg 86%
    03:00 +24°C° 0 mm 2 mps 760 mmHg 85%
    04:00 +24°C° 0 mm 2 mps 760 mmHg 85%
    05:00 +24°C° 0 mm 1 mps 760 mmHg 80%
    06:00 +24°C° 0 mm 1 mps 760 mmHg 76%
    07:00 +25°C° 0 mm 1 mps 760 mmHg 71%
    08:00 +27°C° 0 mm 1 mps 760 mmHg 60%
    09:00 +30°C° 0 mm 2 mps 761 mmHg 49%
    10:00 +34°C° 0 mm 2 mps 761 mmHg 37%
    11:00 +35°C° 0 mm 2 mps 760 mmHg 36%
    12:00 +36°C° 0 mm 3 mps 760 mmHg 35%
    13:00 +37°C° 0 mm 4 mps 759 mmHg 34%
    14:00 +36°C° 0 mm 4 mps 759 mmHg 38%
    15:00 +35°C° 0 mm 4 mps 759 mmHg 41%
    16:00 +34°C° 0 mm 4 mps 758 mmHg 45%
    17:00 +31°C° 0 mm 3 mps 759 mmHg 54%
    18:00 +29°C° 0 mm 3 mps 759 mmHg 63%
    19:00 +27°C° 0 mm 2 mps 760 mmHg 72%
    20:00 +26°C° 0 mm 2 mps 760 mmHg 75%
    21:00 +25°C° 0 mm 1 mps 761 mmHg 77%
    22:00 +25°C° 0 mm 1 mps 761 mmHg 80%
    23:00 +25°C° 0 mm 1 mps 761 mmHg 80%

    Tomorrow, 30 June, Friday

    Time Temperature Precipitation Wind Pressure Humidity
    00:00 +25°C° 0 mm 1 mps 761 mmHg 79%
    01:00 +25°C° 0 mm 1 mps 761 mmHg 79%
    02:00 +24°C° 0 mm 2 mps 761 mmHg 77%
    03:00 +24°C° 0 mm 2 mps 761 mmHg 75%
    04:00 +24°C° 0 mm 2 mps 760 mmHg 73%
    05:00 +25°C° 0 mm 2 mps 761 mmHg 70%
    06:00 +25°C° 0 mm 2 mps 761 mmHg 66%
    07:00 +25°C° 0 mm 2 mps 761 mmHg 63%
    08:00 +28°C° 0 mm 2 mps 761 mmHg 53%
    09:00 +30°C° 0 mm 2 mps 762 mmHg 43%
    10:00 +34°C° 0 mm 2 mps 762 mmHg 33%
    11:00 +35°C° 0 mm 2 mps 761 mmHg 32%
    12:00 +36°C° 0 mm 3 mps 761 mmHg 32%
    13:00 +37°C° 0 mm 4 mps 760 mmHg 31%
    14:00 +36°C° 0 mm 4 mps 760 mmHg 35%
    15:00 +35°C° 0 mm 4 mps 759 mmHg 39%
    16:00 +34°C° 0 mm 4 mps 758 mmHg 42%
    17:00 +31°C° 0 mm 3 mps 759 mmHg 51%
    18:00 +29°C° 0 mm 3 mps 759 mmHg 60%
    19:00 +27°C° 0 mm 3 mps 760 mmHg 69%
    20:00 +27°C° 0 mm 3 mps 760 mmHg 69%
    21:00 +26°C° 0 mm 2 mps 760 mmHg 68%
    22:00 +26°C° 0 mm 2 mps 761 mmHg 68%
    23:00 +26°C° 0 mm 2 mps 761 mmHg 67%

    Day after tomorrow, 1 July, Saturday

    Time Temperature Precipitation Wind Pressure Humidity
    00:00 +26°C° 0 mm 2 mps 760 mmHg 66%
    01:00 +26°C° 0 mm 2 mps 760 mmHg 65%
    02:00 +26°C° 0 mm 2 mps 760 mmHg 63%
    03:00 +26°C° 0 mm 2 mps 759 mmHg 60%
    04:00 +25°C° 0 mm 2 mps 759 mmHg 58%
    05:00 +25°C° 0 mm 2 mps 759 mmHg 55%
    06:00 +26°C° 0 mm 2 mps 760 mmHg 52%
    07:00 +26°C° 0 mm 2 mps 760 mmHg 48%
    08:00 +29°C° 0 mm 2 mps 760 mmHg 39%
    09:00 +32°C° 0 mm 2 mps 761 mmHg 29%
    10:00 +36°C° 0 mm 3 mps 761 mmHg 20%
    11:00 +37°C° 0 mm 3 mps 760 mmHg 21%
    12:00 +38°C° 0 mm 3 mps 759 mmHg 21%
    13:00 +38°C° 0 mm 3 mps 759 mmHg 22%
    14:00 +38°C° 0 mm 4 mps 758 mmHg 26%
    15:00 +37°C° 0 mm 4 mps 758 mmHg 30%
    16:00 +36°C° 0 mm 4 mps 757 mmHg 35%
    17:00 +33°C° 0 mm 3 mps 758 mmHg 45%
    18:00 +30°C° 0 mm 2 mps 758 mmHg 55%
    19:00 +27°C° 0 mm 2 mps 759 mmHg 65%
    20:00 +27°C° 0 mm 2 mps 759 mmHg 68%
    21:00 +26°C° 0 mm 1 mps 760 mmHg 71%
    22:00 +25°C° 0 mm 1 mps 760 mmHg 74%
    23:00 +25°C° 0 mm 1 mps 760 mmHg 73%

    2 July, Sunday

    Time Temperature Precipitation Wind Pressure Humidity
    00:00 +25°C° 0 mm 1 mps 760 mmHg 73%
    01:00 +25°C° 0 mm 1 mps 760 mmHg 73%
    02:00 +25°C° 0 mm 1 mps 759 mmHg 72%
    03:00 +24°C° 0 mm 1 mps 759 mmHg 70%
    04:00 +24°C° 0 mm 1 mps 759 mmHg 69%
    05:00 +24°C° 0 mm 1 mps 759 mmHg 67%
    06:00 +24°C° 0 mm 1 mps 760 mmHg 64%
    07:00 +24°C° 0 mm 1 mps 760 mmHg 62%
    08:00 +27°C° 0 mm 2 mps 760 mmHg 51%
    09:00 +30°C° 0 mm 3 mps 761 mmHg 41%
    10:00 +34°C° 0 mm 3 mps 761 mmHg 30%
    11:00 +35°C° 0 mm 3 mps 760 mmHg 31%
    12:00 +36°C° 0 mm 4 mps 759 mmHg 31%
    13:00 +37°C° 0 mm 4 mps 758 mmHg 31%
    14:00 +36°C° 0 mm 4 mps 758 mmHg 37%
    15:00 +35°C° 0 mm 4 mps 758 mmHg 43%
    16:00 +34°C° 0 mm 3 mps 757 mmHg 48%
    17:00 +31°C° 0 mm 3 mps 758 mmHg 59%
    18:00 +28°C° 0 mm 2 mps 758 mmHg 70%
    19:00 +26°C° 0 mm 2 mps 759 mmHg 80%
    20:00 +26°C° 0 mm 1 mps 759 mmHg 82%
    21:00 +25°C° 0 mm 1 mps 760 mmHg 83%
    22:00 +25°C° 0 mm 1 mps 760 mmHg 84%
    23:00 +25°C° 0 mm 1 mps 760 mmHg 83%

    3 July, Monday

    Time Temperature Precipitation Wind Pressure Humidity
    00:00 +25°C° 0 mm 1 mps 759 mmHg 83%
    01:00 +25°C° 0 mm 1 mps 759 mmHg 82%
    02:00 +24°C° 0 mm 1 mps 759 mmHg 82%
    03:00 +24°C° 0 mm 1 mps 759 mmHg 81%
    04:00 +24°C° 0 mm 1 mps 759 mmHg 81%
    05:00 +24°C° 0 mm 2 mps 759 mmHg 79%
    06:00 +24°C° 0 mm 2 mps 760 mmHg 78%
    07:00 +24°C° 0 mm 2 mps 760 mmHg 76%
    08:00 +27°C° 0 mm 3 mps 760 mmHg 66%
    09:00 +29°C° 0 mm 3 mps 761 mmHg 55%
    10:00 +33°C° 0 mm 4 mps 761 mmHg 45%
    11:00 +33°C° 0 mm 4 mps 760 mmHg 45%
    12:00 +34°C° 0 mm 4 mps 759 mmHg 44%
    13:00 +35°C° 0 mm 4 mps 759 mmHg 44%
    14:00 +34°C° 0 mm 4 mps 758 mmHg 47%
    15:00 +33°C° 0 mm 3 mps 758 mmHg 51%
    16:00 +33°C° 0 mm 3 mps 758 mmHg 54%
    17:00 +30°C° 0 mm 3 mps 758 mmHg 64%
    18:00 +28°C° 0 mm 2 mps 759 mmHg 74%
    19:00 +26°C° 0 mm 2 mps 759 mmHg 85%
    20:00 +25°C° 0 mm 1 mps 760 mmHg 87%
    21:00 +24°C° 0 mm 1 mps 760 mmHg 89%
    22:00 +24°C° 0 mm 1 mps 761 mmHg 91%
    23:00 +24°C° 0 mm 1 mps 760 mmHg 91%

    4 July, Tuesday

    Time Temperature Precipitation Wind Pressure Humidity
    00:00 +23°C° 0 mm 1 mps 760 mmHg 90%
    01:00 +23°C° 0 mm 1 mps 760 mmHg 90%
    02:00 +23°C° 0 mm 1 mps 760 mmHg 89%
    03:00 +23°C° 0 mm 1 mps 759 mmHg 89%
    04:00 +23°C° 0 mm 1 mps 759 mmHg 88%
    05:00 +23°C° 0 mm 1 mps 760 mmHg 87%
    06:00 +23°C° 0 mm 2 mps 760 mmHg 87%
    07:00 +23°C° 0 mm 2 mps 761 mmHg 87%
    08:00 +26°C° 0 mm 3 mps 761 mmHg 76%
    09:00 +28°C° 0 mm 3 mps 761 mmHg 65%
    10:00 +30°C° 0 mm 4 mps 761 mmHg 54%
    11:00 +32°C° 0 mm 4 mps 761 mmHg 51%
    12:00 +33°C° 0 mm 4 mps 760 mmHg 48%
    13:00 +34°C° 0 mm 4 mps 759 mmHg 45%
    14:00 +33°C° 0 mm 4 mps 759 mmHg 50%
    15:00 +33°C° 0 mm 4 mps 758 mmHg 55%
    16:00 +31°C° 0 mm 3 mps 758 mmHg 60%
    17:00 +29°C° 0 mm 3 mps 759 mmHg 68%
    18:00 +27°C° 0 mm 3 mps 759 mmHg 77%
    19:00 +25°C° 0 mm 2 mps 760 mmHg 86%
    20:00 +24°C° 0 mm 2 mps 760 mmHg 87%
    21:00 +24°C° 0 mm 2 mps 761 mmHg 88%
    22:00 +24°C° 0 mm 1 mps 761 mmHg 89%
    23:00 +23°C° 0 mm 1 mps 761 mmHg 90%
    Show more